{"data":{"norad_id":62452,"intl_designator":"2024-251W","name":"STARLINK-32656","alt_names":[],"object_type":"PAYLOAD","status":"ACTIVE","operator":null,"country":"US","launch_date":"2024-12-29","launch_site_code":"AFWTR","launch_vehicle":null,"mission":null,"orbit_class":"UNKNOWN","rcs_meters":null,"size_class":null,"mass_kg":null,"dimensions":null,"purposes":["comms"],"wikipedia_slug":null,"has_3d_model":false,"image_url":null,"decayed_at":null,"tle_current":{"epoch":"2026-05-24T23:27:50.191200Z","epoch_age_seconds":87091,"freshness":"FRESH","line1":"1 62452U 24251W   26144.97766425  .00012647  00000+0  43826-3 0  9991","line2":"2 62452  53.1603 341.2915 0001215  80.9543 279.1595 15.30209810 79465","mean_motion":15.3020981,"eccentricity":0.0001215,"inclination_deg":53.1603,"raan_deg":341.2915,"arg_perigee_deg":80.9543,"mean_anomaly_deg":279.1595,"bstar":0.00043826,"rev_number":7946,"period_min":94.10474240784,"perigee_km":474.35309996646,"apogee_km":476.01845740168,"semimajor_km":6853.3227786841,"source":"CELESTRAK","updated_at":"2026-05-25T13:38:19.688002Z"}}}